Location: Holbach
(51.5399°N, 10.6036°E)
Time: 07:04:11
(UTC+00:00)

Lacrosse 5 rocket - Pass Details

Date: 18 September 2020
Orbit: 461 x 635 km, 57.0° (Epoch: 21 October)

Event Time Altitude Azimuth Distance (km) Brightness Sun altitude
Rises 21:26:38 0° 295° (WNW) 2,843 5.7 -32.6°
Reaches altitude 10° 21:28:54 10° 300° (WNW) 1,963 4.8 -32.8°
Enters shadow 21:30:50 24° 310° (NW) 1,270 3.7 -32.9°
